When you browse on this site, cookies collect data to enhance your experience and personalize the content and advertising you see.
Visit our Privacy Policy to learn more. By continuing to use the site, you agree to this use of cookies and data.
  • In Romania
  • List of Countries
  • For 7 days
  • Water Temperature
  • Satellite Maps
  • Weather Map
  • Weather Widgets
  • user-avatar
    Login

    Hourly Weather Seli

    Today, 25 May, Saturday

    Time Temperature Precipitation Wind Pressure Humidity
    00:00 +18°C° 0 mm 4 mps 748 mmHg 84%
    01:00 +17°C° 0 mm 4 mps 748 mmHg 86%
    02:00 +17°C° 0 mm 4 mps 748 mmHg 88%
    03:00 +17°C° 0 mm 4 mps 748 mmHg 88%
    04:00 +17°C° 0 mm 4 mps 748 mmHg 89%
    05:00 +15°C° 0 mm 4 mps 748 mmHg 89%
    06:00 +18°C° 0 mm 4 mps 748 mmHg 81%
    07:00 +20°C° 0 mm 4 mps 749 mmHg 73%
    08:00 +22°C° 0 mm 3 mps 749 mmHg 63%
    09:00 +24°C° 0 mm 3 mps 749 mmHg 59%
    10:00 +25°C° 0 mm 4 mps 749 mmHg 55%
    11:00 +26°C° 0 mm 4 mps 750 mmHg 51%
    12:00 +26°C° 0 mm 4 mps 750 mmHg 50%
    13:00 +26°C° 0 mm 4 mps 750 mmHg 50%
    14:00 +27°C° 0 mm 4 mps 750 mmHg 50%
    15:00 +26°C° 0 mm 4 mps 750 mmHg 51%
    16:00 +26°C° 0 mm 4 mps 750 mmHg 53%
    17:00 +25°C° 0 mm 4 mps 749 mmHg 54%
    18:00 +24°C° 0 mm 3 mps 749 mmHg 61%
    19:00 +22°C° 0 mm 3 mps 749 mmHg 67%
    20:00 +20°C° 0 mm 3 mps 749 mmHg 73%
    21:00 +20°C° 0 mm 2 mps 749 mmHg 74%
    22:00 +19°C° 0 mm 2 mps 750 mmHg 75%
    23:00 +19°C° 0 mm 2 mps 750 mmHg 75%

    Tomorrow, 26 May, Sunday

    Time Temperature Precipitation Wind Pressure Humidity
    00:00 +19°C° 0 mm 2 mps 750 mmHg 73%
    01:00 +18°C° 0 mm 2 mps 749 mmHg 71%
    02:00 +19°C° 0 mm 1 mps 749 mmHg 69%
    03:00 +19°C° 0 mm 1 mps 749 mmHg 68%
    04:00 +19°C° 0 mm 1 mps 749 mmHg 67%
    05:00 +19°C° 0 mm 1 mps 749 mmHg 66%
    06:00 +21°C° 0 mm 1 mps 749 mmHg 62%
    07:00 +22°C° 0 mm 1 mps 749 mmHg 58%
    08:00 +23°C° 0 mm 1 mps 749 mmHg 54%
    09:00 +24°C° 0 mm 1 mps 750 mmHg 52%
    10:00 +25°C° 0 mm 2 mps 750 mmHg 51%
    11:00 +26°C° 0 mm 2 mps 750 mmHg 49%
    12:00 +26°C° 0 mm 2 mps 750 mmHg 49%
    13:00 +27°C° 0 mm 3 mps 750 mmHg 50%
    14:00 +27°C° 0 mm 3 mps 750 mmHg 50%
    15:00 +27°C° 0 mm 3 mps 749 mmHg 51%
    16:00 +26°C° 0 mm 3 mps 749 mmHg 52%
    17:00 +26°C° 0 mm 2 mps 749 mmHg 53%
    18:00 +25°C° 0 mm 2 mps 749 mmHg 57%
    19:00 +24°C° 0 mm 2 mps 749 mmHg 61%
    20:00 +21°C° 0 mm 2 mps 748 mmHg 65%
    21:00 +21°C° 0 mm 2 mps 749 mmHg 67%
    22:00 +21°C° 0 mm 2 mps 749 mmHg 68%
    23:00 +20°C° 0 mm 2 mps 749 mmHg 70%

    Day after tomorrow, 27 May, Monday

    Time Temperature Precipitation Wind Pressure Humidity
    00:00 +20°C° 0 mm 2 mps 748 mmHg 71%
    01:00 +20°C° 0 mm 2 mps 748 mmHg 73%
    02:00 +20°C° 0 mm 2 mps 748 mmHg 74%
    03:00 +19°C° 0 mm 2 mps 748 mmHg 76%
    04:00 +19°C° 0 mm 2 mps 747 mmHg 78%
    05:00 +19°C° 0 mm 2 mps 747 mmHg 80%
    06:00 +21°C° 0 mm 2 mps 747 mmHg 70%
    07:00 +24°C° 0 mm 2 mps 748 mmHg 59%
    08:00 +26°C° 0 mm 2 mps 748 mmHg 49%
    09:00 +27°C° 0 mm 3 mps 748 mmHg 45%
    10:00 +28°C° 0 mm 3 mps 748 mmHg 42%
    11:00 +29°C° 0 mm 4 mps 748 mmHg 38%
    12:00 +29°C° 0 mm 4 mps 748 mmHg 39%
    13:00 +29°C° 0 mm 4 mps 748 mmHg 39%
    14:00 +29°C° 0 mm 4 mps 747 mmHg 40%
    15:00 +29°C° 0.1 mm 4 mps 747 mmHg 41%
    16:00 +28°C° 0.1 mm 3 mps 747 mmHg 43%
    17:00 +28°C° 0.1 mm 3 mps 747 mmHg 44%
    18:00 +26°C° 0.1 mm 3 mps 747 mmHg 49%
    19:00 +25°C° 0.1 mm 3 mps 747 mmHg 53%
    20:00 +24°C° 0.1 mm 3 mps 747 mmHg 58%
    21:00 +24°C° 0 mm 3 mps 747 mmHg 51%
    22:00 +24°C° 0 mm 3 mps 747 mmHg 45%
    23:00 +23°C° 0 mm 4 mps 747 mmHg 38%

    28 May, Tuesday

    Time Temperature Precipitation Wind Pressure Humidity
    00:00 +22°C° 0 mm 4 mps 747 mmHg 40%
    01:00 +22°C° 0 mm 4 mps 746 mmHg 42%
    02:00 +21°C° 0 mm 4 mps 746 mmHg 44%
    03:00 +21°C° 0 mm 3 mps 746 mmHg 44%
    04:00 +21°C° 0 mm 3 mps 746 mmHg 45%
    05:00 +20°C° 0 mm 2 mps 746 mmHg 45%
    06:00 +23°C° 0 mm 2 mps 747 mmHg 42%
    07:00 +25°C° 0 mm 2 mps 747 mmHg 39%
    08:00 +27°C° 0 mm 1 mps 747 mmHg 35%
    09:00 +27°C° 0 mm 2 mps 747 mmHg 38%
    10:00 +28°C° 0 mm 2 mps 748 mmHg 40%
    11:00 +28°C° 0 mm 2 mps 748 mmHg 43%
    12:00 +28°C° 0 mm 3 mps 748 mmHg 45%
    13:00 +29°C° 0 mm 3 mps 748 mmHg 47%
    14:00 +29°C° 0 mm 4 mps 748 mmHg 49%
    15:00 +28°C° 0 mm 4 mps 748 mmHg 51%
    16:00 +28°C° 0 mm 4 mps 748 mmHg 53%
    17:00 +28°C° 0 mm 4 mps 748 mmHg 55%
    18:00 +26°C° 0 mm 4 mps 748 mmHg 60%
    19:00 +25°C° 0 mm 4 mps 748 mmHg 65%
    20:00 +22°C° 0 mm 4 mps 748 mmHg 70%
    21:00 +22°C° 0 mm 4 mps 749 mmHg 69%
    22:00 +21°C° 0 mm 4 mps 749 mmHg 68%
    23:00 +21°C° 0 mm 4 mps 749 mmHg 68%

    29 May, Wednesday

    Time Temperature Precipitation Wind Pressure Humidity
    00:00 +21°C° 0 mm 4 mps 749 mmHg 68%
    01:00 +20°C° 0 mm 4 mps 749 mmHg 68%
    02:00 +20°C° 0 mm 4 mps 748 mmHg 68%
    03:00 +20°C° 0 mm 4 mps 748 mmHg 68%
    04:00 +19°C° 0 mm 4 mps 748 mmHg 68%
    05:00 +19°C° 0 mm 4 mps 748 mmHg 68%
    06:00 +21°C° 0 mm 4 mps 748 mmHg 61%
    07:00 +24°C° 0 mm 3 mps 749 mmHg 54%
    08:00 +26°C° 0 mm 3 mps 749 mmHg 48%
    09:00 +27°C° 0 mm 4 mps 749 mmHg 43%
    10:00 +29°C° 0 mm 4 mps 749 mmHg 38%
    11:00 +30°C° 0 mm 4 mps 749 mmHg 33%
    12:00 +30°C° 0 mm 4 mps 749 mmHg 35%
    13:00 +30°C° 0 mm 5 mps 749 mmHg 36%
    14:00 +30°C° 0 mm 5 mps 749 mmHg 38%
    15:00 +30°C° 0 mm 5 mps 749 mmHg 43%
    16:00 +29°C° 0 mm 4 mps 749 mmHg 47%
    17:00 +28°C° 0 mm 4 mps 749 mmHg 51%
    18:00 +26°C° 0 mm 4 mps 749 mmHg 57%
    19:00 +25°C° 0 mm 4 mps 749 mmHg 63%
    20:00 +24°C° 0 mm 3 mps 749 mmHg 69%
    21:00 +22°C° 0 mm 3 mps 749 mmHg 70%
    22:00 +22°C° 0 mm 3 mps 749 mmHg 71%
    23:00 +21°C° 0 mm 3 mps 749 mmHg 72%

    30 May, Thursday

    Time Temperature Precipitation Wind Pressure Humidity
    00:00 +21°C° 0 mm 3 mps 749 mmHg 71%
    01:00 +20°C° 0 mm 4 mps 749 mmHg 70%
    02:00 +20°C° 0 mm 4 mps 748 mmHg 69%
    03:00 +20°C° 0 mm 4 mps 748 mmHg 69%
    04:00 +20°C° 0 mm 4 mps 748 mmHg 68%
    05:00 +19°C° 0 mm 4 mps 748 mmHg 68%
    06:00 +22°C° 0 mm 4 mps 749 mmHg 59%
    07:00 +25°C° 0 mm 3 mps 749 mmHg 51%
    08:00 +27°C° 0 mm 3 mps 749 mmHg 43%
    09:00 +28°C° 0 mm 4 mps 749 mmHg 40%
    10:00 +29°C° 0 mm 4 mps 749 mmHg 37%
    11:00 +30°C° 0 mm 4 mps 750 mmHg 34%
    12:00 +32°C° 0 mm 4 mps 750 mmHg 33%
    13:00 +32°C° 0 mm 4 mps 749 mmHg 33%
    14:00 +32°C° 0 mm 5 mps 749 mmHg 32%
    15:00 +30°C° 0 mm 4 mps 749 mmHg 34%
    16:00 +30°C° 0 mm 4 mps 749 mmHg 36%
    17:00 +29°C° 0 mm 4 mps 749 mmHg 38%
    18:00 +28°C° 0 mm 4 mps 749 mmHg 44%
    19:00 +26°C° 0 mm 4 mps 749 mmHg 50%
    20:00 +25°C° 0 mm 3 mps 749 mmHg 57%
    21:00 +24°C° 0 mm 3 mps 749 mmHg 56%
    22:00 +24°C° 0 mm 3 mps 749 mmHg 55%
    23:00 +22°C° 0 mm 3 mps 749 mmHg 54%
    Show more